Grand Junction, CO

11:13 PM MDT on July 20, 2017 (GMT -0600)
Walker

Weather History for KGJT - August, 2013

Change the Weather History Date:

Sunday, August 4, 2013

  Actual Average Record
Temperature  
Mean Temperature 75 °F 78 °F  
Max Temperature 87 °F 92 °F 102 °F (1994)
Min Temperature 63 °F 63 °F 54 °F (1962)
Degree Days  
Heating Degree Days 0 0  
Month to date heating degree days 0 0  
Since 1 June heating degree days 5 23  
Since 1 July heating degree days 0 1  
Cooling Degree Days 10 13  
Month to date cooling degree days 37 52  
Year to date cooling degree days 859 744  
Since 1 June cooling degree days 804 693  
Growing Degree Days 25 (Base 50)    
Moisture  
Dew Point 50 °F    
Average Humidity 46    
Maximum Humidity 67    
Minimum Humidity 25    
Precipitation  
Precipitation T in 0.03 in 1.17 in (2014)
Month to date precipitation 0.12 0.11  
Year to date precipitation 4.91 5.01  
Snow  
Snow 0.00 in 0.00 in 0.00 in (2015)
Month to date snowfall 0.0 0.0  
Since 1 June snowfall 0.0 0.0  
Since 1 July snowfall 0.0 0.0  
Snow Depth 0.00 in    
Sea Level Pressure  
Sea Level Pressure 29.97 in    
Wind  
Wind Speed 13 mph (SE)    
Max Wind Speed 30 mph    
Max Gust Speed 45 mph    
Visibility 10 miles    
Events Rain    
T = Trace of Precipitation, MM = Missing Value Source: NWS Daily Summary

Daily Weather History Graph

Daily Weather History Graph

Search for Another Location

Airport or City:

Trip Planner

Search our weather history database for the weather conditions in past years. The results will help you decide how hot, cold, wet, or windy it might be!

Date:

Astronomy

Aug. 04, 2013 Rise Set
Actual Time 6:17 AM MDT 8:22 PM MDT
Civil Twilight 5:48 AM MDT 8:51 PM MDT
Nautical Twilight 5:11 AM MDT 9:27 PM MDT
Astronomical Twilight 4:32 AM MDT 10:06 PM MDT
Moon 4:21 AM MDT (8/4) 6:47 PM MDT (8/4)
Length of Visible Light 15h 03m
Length of Day
14h 04m
Waning Crescent, 4% of the Moon is Illuminated
Aug 4
Waning Crescent
Aug 6
New
Aug 14
First Quarter
Aug 20
Full
Aug 28
Last Quarter

Hourly Weather History & Observations

Time (MDT) Temp. Dew Point Humidity Pressure Visibility Wind Dir Wind Speed Gust Speed Precip Events Conditions
12:53 AM 71.1 °F 52.0 °F 51% 29.94 in 10.0 mi ESE 17.3 mph - N/A   Clear
1:53 AM 70.0 °F 51.1 °F 51% 29.95 in 10.0 mi ESE 13.8 mph - N/A   Clear
2:53 AM 68.0 °F 53.1 °F 59% 29.95 in 10.0 mi East 13.8 mph - N/A   Clear
3:53 AM 68.0 °F 52.0 °F 56% 29.95 in 10.0 mi ESE 13.8 mph - N/A   Clear
4:53 AM 66.0 °F 52.0 °F 60% 29.95 in 10.0 mi ESE 12.7 mph - N/A   Clear
5:53 AM 64.9 °F 50.0 °F 58% 29.96 in 10.0 mi SE 16.1 mph - N/A   Clear
6:53 AM 63.0 °F 51.1 °F 65% 29.99 in 10.0 mi East 12.7 mph - N/A   Clear
7:53 AM 68.0 °F 51.1 °F 55% 30.01 in 10.0 mi ESE 13.8 mph - N/A   Clear
8:53 AM 73.0 °F 50.0 °F 44% 30.00 in 10.0 mi SE 13.8 mph - N/A   Clear
9:53 AM 75.9 °F 51.1 °F 42% 29.99 in 10.0 mi SE 11.5 mph - N/A   Clear
10:53 AM 80.1 °F 48.9 °F 34% 29.98 in 10.0 mi Variable 5.8 mph - N/A   Clear
11:53 AM 82.0 °F 50.0 °F 33% 29.96 in 10.0 mi East 3.5 mph - N/A   Scattered Clouds
12:53 PM 84.9 °F 50.0 °F 30% 29.92 in 10.0 mi Variable 5.8 mph - N/A   Mostly Cloudy
1:53 PM 86.0 °F 46.9 °F 26% 29.91 in 10.0 mi Calm Calm - N/A   Mostly Cloudy
2:53 PM 84.9 °F 48.9 °F 29% 29.91 in 10.0 mi WSW 6.9 mph - N/A   Mostly Cloudy
3:41 PM 82.4 °F 44.6 °F 26% 30.13 in 10.0 mi ESE 8.1 mph 26.5 mph 0.00 in Rain Light Rain
3:53 PM 82.9 °F 44.1 °F 25% 29.91 in 10.0 mi SSW 16.1 mph 19.6 mph 0.00 in   Mostly Cloudy
4:06 PM 82.4 °F 44.6 °F 26% 30.12 in 10.0 mi South 9.2 mph - N/A   Scattered Clouds
4:53 PM 79.0 °F 51.1 °F 38% 29.94 in 10.0 mi SE 25.3 mph 35.7 mph N/A   Mostly Cloudy
5:53 PM 80.1 °F 51.1 °F 36% 29.96 in 10.0 mi SSE 24.2 mph 29.9 mph N/A   Scattered Clouds
6:53 PM 79.0 °F 50.0 °F 36% 29.95 in 10.0 mi South 19.6 mph 25.3 mph N/A   Scattered Clouds
7:53 PM 75.0 °F 52.0 °F 44% 29.95 in 10.0 mi ESE 16.1 mph 23.0 mph N/A   Clear
8:53 PM 72.0 °F 52.0 °F 49% 29.96 in 10.0 mi SE 17.3 mph 25.3 mph N/A   Clear
9:53 PM 71.1 °F 54.0 °F 55% 29.96 in 10.0 mi East 15.0 mph - N/A   Clear
10:53 PM 70.0 °F 54.0 °F 57% 29.96 in 10.0 mi East 12.7 mph - N/A   Clear
11:53 PM 71.1 °F 54.0 °F 55% 29.96 in 10.0 mi East 13.8 mph - N/A   Scattered Clouds